Location: ??????
(56.0120°N, 39.1740°E)
Time: 07:25:45
(UTC+00:00)

SeaSat 1 - Pass Details

Date: 14 April 2026
Orbit: 736 x 740 km, 108.0° (Epoch: 13 May)

Event Time Altitude Azimuth Distance (km) Brightness Sun altitude
Exits shadow 18:03:27 14° 100° (E) 2,011 4.2 -12.5°
Maximum altitude 18:07:12 35° 39° (NE) 1,185 3.5 -12.9°
Drops below altitude 10° 18:11:38 10° 335° (NNW) 2,262 6.1 -13.3°
Sets 18:14:03 0° 327° (NNW) 3,189 7.3 -13.6°
